Location: Ravensburg
(47.7866°N, 9.6124°E)
Time: 19:30:17
(UTC+01:00)

ISS - Pass Details

Date: 15 November 2025
Orbit: 416 x 421 km, 51.6° (Epoch: 05 December)

Event Time Altitude Azimuth Distance (km) Brightness Sun altitude
Rises 19:42:56 0° 260° (W) 2,363 1.2 -29.9°
Reaches altitude 10° 19:45:03 10° 264° (W) 1,499 -0.1 -30.2°
Enters shadow 19:45:39 14° 267° (W) 1,261 -0.6 -30.3°
